Tracking 29511 objects as of 15-Sep-2024
HD Live streaming from Space Station
objects crossing your sky now

GEESAT 1-08

Track GEESAT 1-08 now!
10-day predictions


NORAD ID: 52792
Int'l Code: 2022-058H
Perigee: 597.7 km
Apogee: 605.9 km
Inclination: 50.0 °
Period: 96.6 minutes
Semi major axis: 6972 km
RCS: Unknown
Launch date: June 2, 2022
Source: People's Republic of China (PRC)
Launch site: Xichang Space Center, China (XSC)
Your satellite tracking list
Your tracking list is empty




NASA's NSSDC Master Catalog

Two Line Element Set (TLE):
1 52792U 22058H   24258.89720677  .00011328  00000-0  11539-2 0  9995
2 52792  49.9946 329.0242 0005880 252.2461 107.7838 14.91041106124326
Source of the keplerian elements: AFSPC